Flight Track Log - Related Links

Times and Time Zones

All times are in EDT time to prevent confusion due to time zone crossing. See the EJA982 flight status page for this flight to view local times or setup timezone preferences in your user account.

Time Position Orientation Groundspeed Altitude Reporting Facility
EDT Latitude Longitude Course Direction KTS MPH feet Rate Location/Type
17:58 47.5144 -122.2897 141° Southeast 173 199 1,200  Level Seattle Center
18:00 47.4661 -122.2311 141° Southeast 215 247 4,100 2,946 Climbing Seattle Center
18:00 47.4244 -122.1844 143° Southeast 250 288 6,700 3,400 Climbing Seattle Center
18:01 47.4069 -122.1819 174° South 268 308 7,500 3,148 Climbing Seattle Center
18:01 47.3489 -122.1686 171° South 280 322 9,900 2,579 Climbing Seattle Center
18:02 47.2611 -122.1472 171° South 329 379 12,100 2,083 Climbing Seattle Center
18:03 47.1603 -122.1239 171° South 369 425 14,100 2,033 Climbing Seattle Center
18:04 47.0558 -122.0983 171° South 383 441 16,200 1,820 Climbing Seattle Center
18:05 46.9522 -122.0683 169° South 385 443 17,800 1,279 Climbing Seattle Center
18:06 46.8439 -122.0292 166° South 403 464 18,800 1,140 Climbing Seattle Center
18:07 46.7342 -121.9878 166° South 411 473 20,100 1,388 Climbing Seattle Center
18:08 46.6211 -121.9447 165° South 424 488 21,600 1,230 Climbing Seattle Center
18:09 46.5083 -121.9031 166° South 423 487 22,600 1,240 Climbing Seattle Center
18:10 46.3711 -121.8519 166° South 429 494 24,100 1,388 Climbing Seattle Center
18:11 46.2542 -121.8111 166° South 434 499 25,400 1,279 Climbing Seattle Center
18:12 46.1486 -121.7694 165° South 442 509 26,700 1,388 Climbing Seattle Center
18:13 46.0242 -121.7239 166° South 459 528 28,200 1,488 Climbing Seattle Center
18:15 45.9000 -121.6778 166° South 463 533 29,700 1,623 Climbing Seattle Center
18:16 45.7464 -121.6214 166° South 475 547 31,500 1,623 Climbing Seattle Center
18:17 45.6169 -121.5747 166° South 482 555 33,000 1,686 Climbing Seattle Center
18:18 45.4861 -121.5269 166° South 486 559 34,900 2,033 Climbing Seattle Center
18:19 45.3569 -121.4806 166° South 482 555 37,100 2,164 Climbing Seattle Center
18:20 45.2331 -121.4361 166° South 466 536 39,300 1,672 Climbing Seattle Center
18:21 45.1103 -121.3922 166° South 459 528 40,500 843 Climbing Seattle Center
18:22 44.9856 -121.3486 166° South 463 533 41,000 248 Climbing Seattle Center
18:23 44.8544 -121.3017 166° South 484 557 41,000  Level Seattle Center
18:24 44.7172 -121.2550 166° South 504 580 41,000  Level Seattle Center
18:25 44.5808 -121.2067 166° South 514 592 41,000  Level Seattle Center
18:26 44.4397 -121.1575 166° South 520 598 41,000  Level Seattle Center
18:27 44.2986 -121.1089 166° South 518 596 41,000  Level Seattle Center
18:28 44.1583 -121.0611 166° South 520 598 41,000  Level Seattle Center
18:29 43.9906 -121.0036 166° South 521 600 41,000  Level Seattle Center
18:30 43.8533 -120.9569 166° South 514 592 41,000  Level Seattle Center
18:31 43.7144 -120.9108 167° South 515 593 41,000  Level Seattle Center
18:32 43.5758 -120.8633 166° South 514 592 41,000  Level Seattle Center
18:33 43.4294 -120.8200 168° South 517 595 41,000  Level Seattle Center
18:34 43.2906 -120.7706 165° South 514 592 41,000  Level Seattle Center
18:35 43.1497 -120.7242 166° South 516 594 41,000  Level Seattle Center
18:36 43.0117 -120.6775 166° South 511 588 41,000  Level Seattle Center
18:37 42.8731 -120.6319 166° South 511 588 41,000  Level Seattle Center
18:38 42.7361 -120.5886 167° South 506 582 41,000  Level Seattle Center
18:39 42.5986 -120.5433 166° South 506 582 41,000  Level Seattle Center
18:40 42.4625 -120.4831 162° South 510 587 41,000  Level Seattle Center
18:41 42.3386 -120.3767 148° Southeast 525 604 41,000  Level Seattle Center
18:42 42.2172 -120.2736 148° Southeast 518 596 41,000  Level Seattle Center
18:43 42.0936 -120.1789 150° Southeast 513 590 41,000  Level Seattle Center
18:44 41.9547 -120.1567 173° South 508 585 41,000  Level Seattle Center
18:45 41.8111 -120.1489 178° South 513 590 41,000  Level Seattle Center
18:46 41.6742 -120.1425 178° South 503 579 41,000 -347 Level Seattle Center
18:47 41.5386 -120.1342 177° South 490 564 40,300 -1,686 Descending Seattle Center
18:48 41.3978 -120.1261 178° South 501 577 37,600 -2,656 Descending Seattle Center
18:49 41.2575 -120.1197 178° South 503 579 34,900 -2,678 Descending Seattle Center
18:50 41.1142 -120.1019 175° South 516 594 32,200 -2,380 Descending Seattle Center
18:51 40.9725 -120.0600 167° South 521 600 30,100 -2,016 Descending Seattle Center
18:52 40.8342 -120.0214 168° South 512 589 28,100 -2,195 Descending Seattle Center
18:52 40.7786 -120.0039 167° South 510 587 27,100 -2,488 Descending Oakland Center
18:53 40.6400 -119.9658 168° South 507 583 24,700 -2,459 Descending Oakland Center
18:54 40.4839 -119.9219 168° South 497 572 22,100 -2,361 Descending Oakland Center
18:55 40.3564 -119.8872 168° South 474 545 19,900 -2,098 Descending Oakland Center
18:56 40.2356 -119.8519 167° South 456 525 17,800 -1,805 Descending Oakland Center
18:57 40.1147 -119.8183 168° South 447 514 16,200 -885 Descending Oakland Center
18:58 39.9950 -119.7858 168° South 443 510 16,000 -393 Descending Oakland Center
18:59 39.8783 -119.7542 168° South 435 501 15,400 -1,082 Descending Oakland Center
19:00 39.7689 -119.7231 168° South 416 479 13,800 -1,328 Descending Oakland Center
19:01 39.6758 -119.6994 169° South 358 412 12,700 -1,909 Descending Oakland Center
19:02 39.6000 -119.7000 180° South 301 346 10,300 -2,917 Descending Northern Cal TRACON
19:03 39.5167 -119.7167 189° South 290 334 7,400 -2,150 Descending Northern Cal TRACON
19:04 39.4500 -119.7333 191° South 236 272 6,000 -1,158 Descending Northern Cal TRACON
19:05 39.4500 -119.7667 270° West 187 215 5,200 -889 Descending Northern Cal TRACON
19:07 39.4833 -119.7667 237° Southwest  Level FlightAware Approximate
19:14 39.4991 -119.7681 237° Southwest  Level Estimated

Login

Don't have an account? Register now (free) for customized features, flight alerts, and more!